Regional Weather Roundup
Issued by NWS Northern Indiana

Home | Current Version | Previous Version | Graphics & Text | Print | Product List | Glossary On
Versions: 1 2 3 4 5 6 7 8 9 10 11 12 13 14 15 16 17 18 19 20 21 22 23 24 25 26 27 28 29 30 31 32 33 34 35 36 37 38 39 40 41 42 43 44 45 46 47 48 49 50
000
ASUS43 KIWX 260700
RWRIWX

KIWX WEATHER ROUNDUP
NATIONAL WEATHER SERVICE NORTHERN INDIANA
300 AM EDT WED APR 26 2017

NOTE: "FAIR" INDICATES FEW OR NO CLOUDS BELOW 12,000 FEET WITH NO
SIGNIFICANT WEATHER AND/OR OBSTRUCTIONS TO VISIBILITY.

* THESE STATIONS ARE NOT UNDER NWS QUALITY CONTROL. THEY ALSO MAY NOT
  REPORT WEATHER SUCH AS PRECIPITATION OR FOG.

INZ001>027-260800-
NORTHERN INDIANA

CITY           SKY/WX    TMP DP  RH WIND       PRES   REMARKS
KNOX*          CLOUDY    64  34  32 S13       29.59F
SOUTH BEND     CLOUDY    65  55  70 SE14      29.61F
GOSHEN         PTCLDY    63  53  70 S9        29.63F
MONTICELLO*    PTCLDY    64  55  71 SE5       29.61F
FORT WAYNE     PTCLDY    60  53  77 SE8       29.67S
PERU/GRISSOM   PTCLDY    60  58  91 S9        29.63S

$$
INZ028>050-260800-
CENTRAL INDIANA

CITY           SKY/WX    TMP DP  RH WIND       PRES   REMARKS
LAFAYETTE      CLOUDY    63  56  78 SE6       29.60F
KOKOMO*        CLOUDY    61  55  81 S10       29.66F
MUNCIE*        CLEAR     63  55  75 S6        29.68R
INDIANAPOLIS   CLOUDY    61  55  81 SE10      29.64F

$$
MIZ043>046-050>051-056>058-064>065-071>073-077>080-260800-
SOUTHWEST LOWER MICHIGAN

CITY           SKY/WX    TMP DP  RH WIND       PRES   REMARKS
BATTLE CREEK   MOCLDY    60  53  77 SE8       29.66F
BENTON HARBOR  CLOUDY    64  54  69 SE8       29.59F
COLDWATER*     PTCLDY    58  53  84 SE6       29.66S
HILLSDALE*     MOCLDY    57  52  82 SE8       29.68R
HOLLAND        CLOUDY    63  54  72 SE8       29.60F
GRAND RAPIDS   CLOUDY    61  54  77 SE7       29.63F
KALAMAZOO      CLOUDY    60  52  74 SE5       29.64F
STURGIS*       PTCLDY    58  54  85 SE8       29.64F
THREE RIVERS*  FAIR      58  53  83 SE5       29.65S

$$
OHZ001>008-015>018-024>025-260800-
NORTHWEST OHIO

CITY           SKY/WX    TMP DP  RH WIND       PRES   REMARKS
DEFIANCE       CLEAR     61  53  75 SE8       29.68S
FINDLAY        CLEAR     61  52  72 SE12      29.69F
TOLEDO EXPRESS CLEAR     57  54  89 SE6       29.68F
TOLEDO METCALF CLEAR     57  54  89 SE7       29.71F
LIMA           CLEAR     61  54  77 SE8       29.70F

$$
AND FOR LAKE MICHIGAN COASTAL AND OPEN LAKE BUOY OBSERVATIONS

STATION/POSITION TEMP    WIND        PRES    VSBY  WAVE
                 AIR SEA DIR/SP/G                  HT/PER
                 (F)     (DEG/KT/KT) (MB)    (MI)  (FT/S)
CALUMET HARBOR    67     150/  8/ 11 1000.2F
MICHIGAN CITY     67     150/  9/ 11   N/A
BURNS HARBOR      68     160/  8/ 18 1001.7F
SOUTH LAKE BUOY   49 41   90/ 12/ 14 1001.7          1
4 MI NW BRIDGMAN  60 50  170/ 10/ 12 1001.8F         1

$$
&&




USA.gov is the U.S. government's official web portal to all federal, state and local government web resources and services.